Location: La Tine
(46.4708°N, 7.0525°E)
Time: 16:46:08
(UTC+00:00)

CZ-2C R/B - Pass Details

Date: 18 September 2020
Orbit: 704 x 908 km, 98.1° (Epoch: 30 October)

Event Time Altitude Azimuth Distance (km) Brightness Sun altitude
Rises 17:56:16 0° 152° (SSE) 3,243 5.9 -4.2°
Reaches altitude 10° 17:58:33 10° 149° (SSE) 2,349 5.2 -4.6°
Maximum altitude 18:03:39 59° 71° (ENE) 950 3.3 -5.4°
Drops below altitude 10° 18:09:05 10° 353° (N) 2,497 5.9 -6.4°
Sets 18:11:33 0° 350° (N) 3,465 6.7 -6.8°
